This is the latest recevied weather packets stored in our database for station/object OE3TEC-15. If no packets are shown the sender has not sent any weather packets the latest 10 day(s).
| Time | Temp. | Humidity | Pressure | Rain* | Wind** | Luminosity | Snow |
|---|---|---|---|---|---|---|---|
| 1777227368 | 12.22° C | 38% | 1023.7 hPa | 0 mm | - | 0 W/m² | - |
| 1777226761 | 12.78° C | 37% | 1023.7 hPa | 0 mm | - | 1 W/m² | - |
| 1777226154 | 12.78° C | 36% | 1023.6 hPa | 0 mm | - | 4 W/m² | - |
| 1777225548 | 12.78° C | 36% | 1023.5 hPa | 0 mm | - | 8 W/m² | - |
| 1777224940 | 13.33° C | 35% | 1023.6 hPa | 0 mm | - | 14 W/m² | - |
| 1777224334 | 13.89° C | 35% | 1023.4 hPa | 0 mm | - | 19 W/m² | - |
| 1777223726 | 13.89° C | 34% | 1023.3 hPa | 0 mm | - | 22 W/m² | - |
| 1777223126 | 14.44° C | 34% | 1023 hPa | 0 mm | - | 25 W/m² | - |
| 1777222519 | 15° C | 32% | 1023.1 hPa | 0 mm | - | 28 W/m² | - |
| 1777221912 | 15.56° C | 32% | 1023 hPa | 0 mm | - | 35 W/m² | - |
| 1777221305 | 15.56° C | 32% | 1022.9 hPa | 0 mm | - | 40 W/m² | - |
| 1777220698 | 15.56° C | 32% | 1023.1 hPa | 0 mm | - | 50 W/m² | - |
| 1777220091 | 15.56° C | 31% | 1023.1 hPa | 0 mm | - | 54 W/m² | - |
| 1777219482 | 16.11° C | 31% | 1023 hPa | 0 mm | - | 75 W/m² | - |
| 1777218876 | 16.67° C | 29% | 1023 hPa | 0 mm | - | 116 W/m² | - |
| 1777218270 | 16.67° C | 29% | 1023 hPa | 0 mm | - | 135 W/m² | - |
| 1777217662 | 16.11° C | 29% | 1022.9 hPa | 0 mm | - | 148 W/m² | - |
| 1777217055 | 16.67° C | 29% | 1022.9 hPa | 0 mm | - | 171 W/m² | - |
| 1777216447 | 16.11° C | 29% | 1022.7 hPa | 0 mm | - | 199 W/m² | - |
| 1777215839 | 16.67° C | 29% | 1023 hPa | 0 mm | - | 240 W/m² | - |
| 1777215233 | 16.67° C | 29% | 1023 hPa | 0 mm | - | 275 W/m² | - |
| 1777214626 | 17.22° C | 28% | 1023 hPa | 0 mm | - | 298 W/m² | - |
| 1777214018 | 16.67° C | 27% | 1022.9 hPa | 0 mm | - | 323 W/m² | - |
| 1777213410 | 17.22° C | 28% | 1023 hPa | 0 mm | - | 349 W/m² | - |
| 1777212804 | 17.22° C | 28% | 1023 hPa | 0 mm | - | 374 W/m² | - |
* Rain latest hour (hover to see other rain measurements)
** Current wind speed in m/s (hover to see current wind gust speed)